STARLINK-4252, 53057

Orbit data source: Space-Track

STARLINK-4252, 53057 is a payload satellite owned by SpaceX/Seattle (US) in SSO that was launched on Mon, 11 Jul 2022 UTC via an FALCON 9 launch vehicle from the Air Force Western Test Range (AFWTR). Payload-class satellites include a variety of spacecraft equipped with specific instruments for various scientific and technological missions. These include communications satellites like Starlink; space stations such as the ISS; scientific satellites like the Hubble; Earth observation satellites from companies like Planet Labs, Umbra, and HawkEye 360; GPS; miniature CubeSats for education and research; and military/defense satellites.

Loading next visibility...
Identifier
53057, 2022-077Q
Orbit
SSO
Country
Flag of USUS
Related business
Manufacturer
SpaceX/Seattle
Mission
Operational Commercial Communications
Bus & Motor
STARLINK, Unknown motor
Mass
297 kg wet, ~275 kg dry
Launch date (UTC)
2022-07-11 (4 years ago)
Launch vehicle
FALCON 9
Launch site
Air Force Western Test Range (AFWTR)
Object type
Payload
Rocket body
Debris
Shape & HBR
Box + 1 Pan, 10.1 m
Radar Cross Section
13.562 m², Large (>1 m²)

Expand to show TLE details & history
Last TLE update: 2 days ago

TLE from 2 days ago
0 STARLINK-4252
1 53057U 22077Q   26170.95853475  .00004406  00000-0  30892-3 0  9999
2 53057  97.3427 351.0056 0003405  81.6982 278.4632 15.05675863216377
Epoch: 2026-06-19T23:00Z
TLE epoch observation values (Epoch: 2026-06-19T23:00:17.402Z)
Latitude
0.00003°
Longitude
97.75305°
Altitude
552.158 km
Speed
7.586 km/s
True Right ascension
23h 24m 01s
True Declination
0° 00' 00"
Sunlit
Object was in daylight at epoch
Visualization orbit readout
Latitude
Unknown
Longitude
Unknown
Altitude
Unknown
Speed
Unknown
Apparent Right ascension
Unknown
Apparent Declination
Unknown
Sunlit
N/A
Visualization observer readout
Local Sidereal Time
22:00:32
Azimuth
Unknown
Elevation
Unknown
Doppler factor
Unknown
Orbital elements
Apogee altitude
548.772 km
Perigee altitude
544.056 km
Semi-major axis
6,924.551 km
Eccentricity
0.00034
Inclination
97.3427°
RAAN
351.0056°
Arg. of periapsis
81.6982°
True anomaly
278.4246°
Mean anomaly
278.4632°
Eccentric anomaly
278.4439°
Mean motion
3.76665 °/min
Orbital period
95.58 mins
BSTAR
0.00030892
Loading maneuver chart data...
Computing Atmospheric mass density...
Loading historical data...
Loading historical data...
Loading historical data...
Loading historical data...
Loading historical data...
Loading historical data...
Loading historical data...

Documentation

Showing up to 5 results
|